Location: Baix
(44.7118°N, 4.7648°E)
Time: 16:57:23
(UTC+00:00)

ATLAS 3B R/B - Pass Details

Date: 07 August 2020
Orbit: 1016 x 1179 km, 63.8° (Epoch: 22 September)

Event Time Altitude Azimuth Distance (km) Brightness Sun altitude
Exits shadow 01:40:58 - 278° (W) 2,974 4.8 -23.7°
Reaches altitude 10° 01:41:35 10° 282° (WNW) 2,806 4.7 -23.6°
Maximum altitude 01:46:40 23° 333° (NNW) 2,037 4.5 -23.1°
Drops below altitude 10° 01:51:51 10° 24° (NNE) 2,855 6.0 -22.7°
Sets 01:55:10 0° 39° (NE) 3,835 7.1 -22.3°
